Weather History for Fort Madison, IA

Change the Weather History Date:

Sunday, April 27, 2014

  Actual Average Record
Temperature  
Mean Temperature 62 °F -  
Max Temperature 77 °F 70 °F 84 °F (1962)
Min Temperature 48 °F 48 °F 32 °F (1953)
Degree Days  
Heating Degree Days 2    
Growing Degree Days 12 (Base 50)    
Moisture  
Dew Point 50 °F    
Average Humidity 73    
Maximum Humidity 100    
Minimum Humidity 47    
Precipitation  
Precipitation 0.95 in - - ()
Sea Level Pressure  
Sea Level Pressure 29.66 in    
Wind  
Wind Speed 15 mph (ESE)    
Max Wind Speed 28 mph    
Max Gust Speed 47 mph    
Visibility 9 miles    
Events Rain    
Averages and records for this station are not official NWS values.
T = Trace of Precipitation, MM = Missing Value Source: NWS Daily Summary

Daily Weather History Graph

Daily Weather History Graph

Search for Another Location

Airport:

Trip Planner

Search our weather history database for the weather conditions in past years. The results will help you decide how hot, cold, wet, or windy it might be!

Date:

Astronomy

Apr. 27, 2014 Rise Set
Actual Time 6:09 AM CDT 7:57 PM CDT
Civil Twilight 5:39 AM CDT 8:26 PM CDT
Nautical Twilight 5:04 AM CDT 9:02 PM CDT
Astronomical Twilight 4:26 AM CDT 9:40 PM CDT
Moon 5:10 AM CDT (4/27) 6:30 PM CDT (4/27)
Length of Visible Light 14h 46m
Length of Day
13h 47m
Waning Crescent, 3% of the Moon is Illuminated
Apr 27
Waning Crescent
Apr 29
New
May 6
First Quarter
May 14
Full
May 21
Last Quarter

Hourly Weather History & Observations

Time (CDT) Temp. Dew Point Humidity Pressure Visibility Wind Dir Wind Speed Gust Speed Precip Events Conditions
12:15 AM 51.8 °F 35.6 °F 54% 29.83 in 10.0 mi East 15.0 mph 24.2 mph N/A   Scattered Clouds
12:35 AM 51.8 °F 35.6 °F 54% 29.86 in 10.0 mi ENE 13.8 mph 19.6 mph N/A   Scattered Clouds
1:15 AM 50.0 °F 33.8 °F 54% 29.84 in 10.0 mi East 19.6 mph 28.8 mph N/A   Clear
1:35 AM 50.0 °F 33.8 °F 54% 29.82 in 10.0 mi East 21.9 mph - N/A   Clear
1:55 AM 50.0 °F 33.8 °F 54% 29.82 in 10.0 mi East 13.8 mph 21.9 mph N/A   Clear
2:15 AM 50.0 °F 33.8 °F 54% 29.81 in 10.0 mi East 17.3 mph - N/A   Scattered Clouds
2:35 AM 48.2 °F 33.8 °F 58% 29.82 in 10.0 mi East 15.0 mph - N/A   Scattered Clouds
2:55 AM 48.2 °F 33.8 °F 58% - 10.0 mi East 15.0 mph 20.7 mph N/A   Scattered Clouds
3:15 AM 48.2 °F 35.6 °F 62% 29.77 in 10.0 mi East 20.7 mph 27.6 mph N/A   Scattered Clouds
3:35 AM 48.2 °F 35.6 °F 62% 29.77 in 10.0 mi East 13.8 mph 21.9 mph N/A   Clear
3:55 AM 48.2 °F 35.6 °F 62% 29.78 in 10.0 mi East 15.0 mph 18.4 mph N/A   Clear
4:15 AM 50.0 °F 37.4 °F 62% 29.79 in 10.0 mi ESE 15.0 mph - N/A   Clear
4:35 AM 50.0 °F 37.4 °F 62% 29.79 in 10.0 mi ESE 13.8 mph - N/A   Clear
4:55 AM 50.0 °F 37.4 °F 62% 29.77 in 10.0 mi ESE 17.3 mph 25.3 mph N/A   Scattered Clouds
5:15 AM 50.0 °F 37.4 °F 62% 29.76 in 10.0 mi East 17.3 mph - N/A   Scattered Clouds
5:35 AM 50.0 °F 37.4 °F 62% 29.73 in 10.0 mi East 19.6 mph 24.2 mph N/A   Scattered Clouds
5:55 AM 50.0 °F 39.2 °F 66% 29.73 in 10.0 mi East 13.8 mph 20.7 mph N/A   Clear
6:15 AM 50.0 °F 39.2 °F 66% 29.72 in 10.0 mi East 13.8 mph - N/A   Clear
6:35 AM 51.8 °F 39.2 °F 62% 29.75 in 10.0 mi East 8.1 mph - N/A   Clear
6:55 AM 51.8 °F 39.2 °F 62% 29.74 in 10.0 mi East 9.2 mph - N/A   Clear
7:15 AM 51.8 °F 39.2 °F 62% 29.77 in 10.0 mi SE 5.8 mph - N/A   Clear
7:35 AM 51.8 °F 41.0 °F 67% 29.75 in 10.0 mi East 8.1 mph - N/A   Scattered Clouds
7:55 AM 53.6 °F 41.0 °F 62% 29.73 in 10.0 mi East 11.5 mph - N/A   Scattered Clouds
8:15 AM 55.4 °F 41.0 °F 58% 29.72 in 10.0 mi East 15.0 mph - N/A   Clear
8:35 AM 55.4 °F 42.8 °F 63% 29.71 in 10.0 mi East 13.8 mph 21.9 mph N/A   Clear
8:55 AM 57.2 °F 42.8 °F 59% 29.70 in 10.0 mi East 15.0 mph - N/A   Clear
9:15 AM 59.0 °F 42.8 °F 55% 29.69 in 10.0 mi East 13.8 mph 18.4 mph N/A   Clear
9:35 AM 60.8 °F 44.6 °F 55% 29.67 in 10.0 mi ESE 17.3 mph 25.3 mph N/A   Scattered Clouds
9:55 AM 62.6 °F 44.6 °F 52% 29.66 in 10.0 mi ESE 16.1 mph - N/A   Scattered Clouds
10:15 AM 62.6 °F 46.4 °F 55% 29.66 in 10.0 mi ESE 13.8 mph 23.0 mph N/A   Mostly Cloudy
10:35 AM 66.2 °F 48.2 °F 52% 29.64 in 10.0 mi ESE 19.6 mph - N/A   Scattered Clouds
10:55 AM 68.0 °F 50.0 °F 52% 29.64 in 10.0 mi ESE 20.7 mph - N/A   Clear
11:15 AM 71.6 °F 51.8 °F 50% 29.65 in 10.0 mi SE 13.8 mph - N/A   Clear
11:35 AM 73.4 °F 51.8 °F 47% 29.64 in 10.0 mi ESE 19.6 mph 24.2 mph N/A   Clear
11:55 AM 75.2 °F 53.6 °F 47% 29.63 in 10.0 mi ESE 15.0 mph 24.2 mph N/A   Clear
12:35 PM 77.0 °F 55.4 °F 47% 29.61 in 10.0 mi ESE 18.4 mph 23.0 mph N/A   Clear
12:55 PM 77.0 °F 55.4 °F 47% 29.61 in 10.0 mi SE 13.8 mph 24.2 mph N/A   Scattered Clouds
1:15 PM 77.0 °F 57.2 °F 50% 29.60 in 10.0 mi SE 15.0 mph 23.0 mph N/A   Mostly Cloudy
1:35 PM 75.2 °F 59.0 °F 57% 29.58 in 10.0 mi SE 13.8 mph 24.2 mph N/A   Overcast
1:55 PM 75.2 °F 59.0 °F 57% 29.57 in 10.0 mi SE 17.3 mph 23.0 mph N/A   Overcast
2:15 PM 71.6 °F 60.8 °F 69% 29.57 in 10.0 mi SE 17.3 mph 27.6 mph N/A   Overcast
2:35 PM 71.6 °F 62.6 °F 73% 29.56 in 10.0 mi SE 20.7 mph 28.8 mph N/A   Mostly Cloudy
2:55 PM 71.6 °F 62.6 °F 73% 29.56 in 10.0 mi SE 20.7 mph 31.1 mph N/A   Overcast
3:15 PM 73.4 °F 62.6 °F 69% 29.54 in 10.0 mi ESE 19.6 mph 28.8 mph N/A   Mostly Cloudy
3:35 PM 73.4 °F 62.6 °F 69% 29.58 in 10.0 mi SE 17.3 mph 23.0 mph N/A   Mostly Cloudy
3:55 PM 69.8 °F 64.4 °F 83% 29.60 in 4.0 mi SSE 10.4 mph 23.0 mph N/A Rain Heavy Rain
4:15 PM 66.2 °F 64.4 °F 94% 29.58 in 2.0 mi ESE 13.8 mph - 0.04 in Rain Heavy Rain
4:35 PM 59.0 °F 57.2 °F 94% 29.68 in 0.5 mi South 15.0 mph 47.2 mph 0.48 in Rain Heavy Rain
5:15 PM 59.0 °F 59.0 °F 100% 29.64 in 10.0 mi SSW 3.5 mph - 0.03 in Rain Light Rain
5:35 PM 59.0 °F 59.0 °F 100% 29.65 in 10.0 mi ENE 6.9 mph - 0.05 in Rain Light Rain
5:55 PM 59.0 °F 59.0 °F 100% 29.62 in 7.0 mi ENE 13.8 mph - 0.10 in Rain Rain
6:15 PM 59.0 °F 59.0 °F 100% 29.60 in 10.0 mi East 12.7 mph 18.4 mph 0.03 in Rain Light Rain
6:35 PM 59.0 °F 59.0 °F 100% 29.61 in 10.0 mi ENE 9.2 mph - 0.03 in   Scattered Clouds
6:55 PM 59.0 °F 59.0 °F 100% 29.61 in 10.0 mi East 15.0 mph - 0.04 in   Scattered Clouds
7:15 PM 60.8 °F 60.8 °F 100% 29.58 in 10.0 mi ENE 17.3 mph 20.7 mph N/A Rain Light Rain
7:35 PM 59.0 °F 59.0 °F 100% 29.54 in 10.0 mi ENE 17.3 mph 21.9 mph N/A   Scattered Clouds
7:55 PM 60.8 °F 60.8 °F 100% 29.57 in 10.0 mi East 11.5 mph - N/A   Scattered Clouds
8:15 PM 60.8 °F 60.8 °F 100% 29.61 in 10.0 mi East 10.4 mph - N/A   Mostly Cloudy
8:35 PM 60.8 °F 60.8 °F 100% 29.60 in 10.0 mi East 12.7 mph - N/A   Overcast
8:55 PM 60.8 °F 60.8 °F 100% 29.62 in 10.0 mi East 13.8 mph 17.3 mph N/A Rain Light Rain
9:15 PM 60.8 °F 60.8 °F 100% 29.52 in 1.8 mi ENE 27.6 mph 33.4 mph 0.31 in Rain Heavy Rain
9:35 PM 60.8 °F 60.8 °F 100% 29.60 in 10.0 mi East 9.2 mph - 0.32 in   Overcast
9:55 PM 60.8 °F 60.8 °F 100% 29.58 in 7.0 mi East 12.7 mph - 0.32 in   Overcast
10:15 PM 62.6 °F 62.6 °F 100% 29.59 in 7.0 mi South 6.9 mph - N/A   Overcast
10:35 PM 62.6 °F 62.6 °F 100% 29.58 in 7.0 mi ESE 10.4 mph - N/A   Overcast
10:55 PM 62.6 °F 62.6 °F 100% 29.57 in 7.0 mi ESE 9.2 mph - N/A   Overcast
11:15 PM 64.4 °F 64.4 °F 100% 29.57 in 10.0 mi SE 9.2 mph 19.6 mph N/A   Overcast
11:35 PM 62.6 °F 62.6 °F 100% 29.56 in 10.0 mi SE 12.7 mph 17.3 mph N/A   Overcast
11:55 PM 62.6 °F 62.6 °F 100% 29.55 in 10.0 mi SE 11.5 mph - 0.01 in Rain Light Rain